Weather History for KHOB - March, 2014

Change the Weather History Date:

Sunday, March 16, 2014

  Actual Average Record
Temperature  
Mean Temperature 46 °F -  
Max Temperature 57 °F 66 °F 86 °F (2011)
Min Temperature 33 °F 39 °F 20 °F (1956)
Degree Days  
Heating Degree Days 19    
Moisture  
Dew Point 21 °F    
Average Humidity 39    
Maximum Humidity 70    
Minimum Humidity 20    
Precipitation  
Precipitation 0.00 in - - ()
Sea Level Pressure  
Sea Level Pressure 30.15 in    
Wind  
Wind Speed 24 mph (NNW)    
Max Wind Speed 38 mph    
Max Gust Speed 50 mph    
Visibility 8 miles    
Events      
Averages and records for this station are not official NWS values.
T = Trace of Precipitation, MM = Missing Value Source: NWS Daily Summary

Daily Weather History Graph

Daily Weather History Graph

Search for Another Location

Airport or City:

Trip Planner

Search our weather history database for the weather conditions in past years. The results will help you decide how hot, cold, wet, or windy it might be!

Date:

Astronomy

Mar. 16, 2014 Rise Set
Actual Time 7:01 AM MDT 7:01 PM MDT
Civil Twilight 6:37 AM MDT 7:26 PM MDT
Nautical Twilight 6:08 AM MDT 7:54 PM MDT
Astronomical Twilight 5:39 AM MDT 8:23 PM MDT
Moon 7:18 PM MDT (3/16) 6:47 AM MDT (3/16)
Length of Visible Light 12h 48m
Length of Day
11h 59m
Full, 100% of the Moon is Illuminated
Mar 16
Full
Mar 23
Last Quarter
Mar 30
New
Apr 7
First Quarter
Apr 15
Full

Hourly Weather History & Observations

Time (MDT) Temp. Windchill Dew Point Humidity Pressure Visibility Wind Dir Wind Speed Gust Speed Precip Events Conditions
12:15 AM 48.2 °F - 32.0 °F 54% 30.03 in 3.0 mi NW 33.4 mph 46.0 mph N/A   Haze
12:35 AM 48.2 °F - 32.0 °F 54% 30.04 in 2.5 mi NW 38.0 mph 46.0 mph N/A   Haze
12:55 AM 48.2 °F - 32.0 °F 54% 30.05 in 2.5 mi NW 31.1 mph 43.7 mph N/A   Haze
1:15 AM 48.2 °F - 30.2 °F 50% 30.06 in 3.0 mi WNW 34.5 mph 42.6 mph N/A   Haze
1:35 AM 46.4 °F 36.7 °F 30.2 °F 53% 30.07 in 3.0 mi NW 33.4 mph 42.6 mph N/A   Haze
1:55 AM 46.4 °F 36.7 °F 28.4 °F 50% 30.08 in 3.0 mi NW 33.4 mph 41.4 mph N/A   Haze
2:15 AM 44.6 °F 34.2 °F 28.4 °F 53% 30.09 in 3.0 mi NW 33.4 mph 43.7 mph N/A   Haze
2:35 AM 44.6 °F 34.9 °F 28.4 °F 53% 30.10 in 4.0 mi NW 28.8 mph 43.7 mph N/A   Haze
2:55 AM 42.8 °F 31.6 °F 28.4 °F 57% 30.11 in 5.0 mi NW 34.5 mph 49.5 mph N/A   Haze
3:15 AM 42.8 °F 31.8 °F 30.2 °F 61% 30.11 in 6.0 mi NW 33.4 mph 47.2 mph N/A   Haze
3:35 AM 41.0 °F 30.7 °F 30.2 °F 65% 30.12 in 8.0 mi NW 25.3 mph 39.1 mph N/A   Mostly Cloudy
3:55 AM 41.0 °F 29.8 °F 30.2 °F 65% 30.13 in 10.0 mi WNW 29.9 mph 38.0 mph N/A   Overcast
5:50 AM 39.2 °F 28.3 °F 28.4 °F 65% 30.17 in 10.0 mi North 25.3 mph 32.2 mph N/A   Partly Cloudy
6:50 AM 37.4 °F 26.4 °F 28.4 °F 70% 30.20 in 10.0 mi North 23.0 mph 33.4 mph N/A   Partly Cloudy
9:50 AM 46.4 °F 37.4 °F 26.6 °F 46% 30.25 in 10.0 mi North 28.8 mph 36.8 mph N/A   Clear
10:50 AM 50.0 °F - 26.6 °F 40% 30.27 in 10.0 mi North 27.6 mph 36.8 mph N/A   Partly Cloudy
11:50 AM 53.6 °F - 24.8 °F 33% 30.28 in 10.0 mi North 27.6 mph 34.5 mph N/A   Partly Cloudy
12:50 PM 53.6 °F - 21.2 °F 28% 30.24 in 10.0 mi North 26.5 mph 33.4 mph N/A   Partly Cloudy
1:50 PM 55.4 °F - 19.4 °F 25% 30.21 in 10.0 mi North 29.9 mph 36.8 mph N/A   Scattered Clouds
2:50 PM 57.2 °F - 19.4 °F 23% 30.18 in 10.0 mi North 18.4 mph 29.9 mph N/A   Scattered Clouds
3:50 PM 57.2 °F - 17.6 °F 21% 30.15 in 10.0 mi North 21.9 mph 29.9 mph N/A   Scattered Clouds
4:50 PM 55.4 °F - 15.8 °F 21% 30.14 in 10.0 mi North 17.3 mph 24.2 mph N/A   Scattered Clouds
5:15 PM 55.4 °F - 15.8 °F 21% 30.14 in 10.0 mi NW 19.6 mph 24.2 mph N/A   Partly Cloudy
5:35 PM 57.2 °F - 15.8 °F 20% 30.14 in 10.0 mi NW 20.7 mph 26.5 mph N/A   Partly Cloudy
5:50 PM 55.4 °F - 15.8 °F 21% 30.14 in 10.0 mi North 16.1 mph 26.5 mph N/A   Partly Cloudy
5:55 PM 55.4 °F - 15.8 °F 21% 30.14 in 10.0 mi NW 17.3 mph - N/A   Clear
6:15 PM 55.4 °F - 15.8 °F 21% 30.14 in 10.0 mi NW 16.1 mph - N/A   Clear
6:35 PM 55.4 °F - 15.8 °F 21% 30.15 in 10.0 mi NW 15.0 mph 18.4 mph N/A   Clear
6:55 PM 53.6 °F - 15.8 °F 22% 30.15 in 10.0 mi NNE 9.2 mph - N/A   Clear
7:15 PM 50.0 °F - 15.8 °F 26% 30.15 in 10.0 mi NNE 9.2 mph - N/A   Clear
7:35 PM 48.2 °F - 15.8 °F 27% 30.15 in 10.0 mi NE 8.1 mph - N/A   Clear
7:55 PM 44.6 °F 41.4 °F 15.8 °F 31% 30.16 in 10.0 mi NNE 5.8 mph - N/A   Clear
8:15 PM 44.6 °F 41.4 °F 15.8 °F 31% 30.16 in 10.0 mi NE 5.8 mph - N/A   Clear
8:35 PM 44.6 °F 43.1 °F 15.8 °F 31% 30.16 in 10.0 mi NE 3.5 mph - N/A   Clear
8:55 PM 44.6 °F - 15.8 °F 31% 30.17 in 10.0 mi Calm Calm - N/A   Clear
9:15 PM 44.6 °F - 17.6 °F 34% 30.18 in 10.0 mi Calm Calm - N/A   Clear
9:35 PM 41.0 °F - 15.8 °F 36% 30.18 in 10.0 mi Calm Calm - N/A   Clear
9:55 PM 37.4 °F - 14.0 °F 38% 30.18 in 10.0 mi Calm Calm - N/A   Clear
10:15 PM 37.4 °F - 15.8 °F 41% 30.17 in 10.0 mi Calm Calm - N/A   Clear
10:35 PM 39.2 °F - 14.0 °F 36% 30.16 in 10.0 mi Calm Calm - N/A   Clear
10:55 PM 37.4 °F - 14.0 °F 38% 30.16 in 10.0 mi Calm Calm - N/A   Clear
11:15 PM 35.6 °F - 14.0 °F 41% 30.16 in 10.0 mi Calm Calm - N/A   Clear
11:35 PM 37.4 °F - 15.8 °F 41% 30.16 in 10.0 mi Calm Calm - N/A   Clear
11:55 PM 33.8 °F - 14.0 °F 44% 30.16 in 10.0 mi Calm Calm - N/A   Clear